Location: Albuquerque Trailhead
(34.7934°N, 106.3736°W)
Time: 23:51:59
(UTC+00:00)

Cosmos 1697 Rocket - Pass Details

Date: 20 June 2021
Orbit: 831 x 845 km, 71.0° (Epoch: 27 July)

Event Time Altitude Azimuth Distance (km) Brightness Sun altitude
Rises 10:40:25 0° 345° (NNW) 3,401 6.2 -12.9°
Reaches altitude 10° 10:43:00 10° 352° (N) 2,464 5.6 -12.5°
Maximum altitude 10:48:23 44° 64° (ENE) 1,148 4.0 -11.6°
Drops below altitude 10° 10:53:45 10° 136° (SE) 2,457 5.2 -10.8°
Sets 10:56:18 0° 143° (SE) 3,389 5.8 -10.4°
